Torna al catalogo

CZ-6A DEB

AttivoPO
NORAD 55552·DEBRIS·🇨🇳 China

Lanciato Nov 11, 2022 da Taiyuan Satellite Launch Center

Loading…

Prossimi Passaggi (prossime 24 ore)

TLE

AggiornatoSource: Space-Track

Epoca: Sep 14, 2026, 04:02 UTC

1 55552U 22151ZA  26257.16871913  .00006703  00000-0  11152-2 0  9999
2 55552  98.6216 320.8877 0067506  26.5609 333.9028 14.68919554196582

Traccia CZ-6A DEB in tempo reale con AllMySat

Download on the App Store